Change the Weather History Date:

Thursday, April 18, 2013

  Actual Average (KLWD) Record (KLWD)
Temperature  
Mean Temperature 37 °F 52 °F  
Max Temperature 42 °F 63 °F 85 °F (1948)
Min Temperature 32 °F 42 °F 24 °F (1983)
Degree Days  
Heating Degree Days 28 13  
Month to date heating degree days 276  
Since 1 July heating degree days 5765  
Cooling Degree Days 0 0  
Month to date cooling degree days 0  
Year to date cooling degree days 1  
Moisture  
Dew Point 35 °F    
Average Humidity 90    
Maximum Humidity 96    
Minimum Humidity 79    
Precipitation  
Precipitation 0.65 in 0.14 in 1.76 in (1991)
Month to date precipitation 1.90  
Sea Level Pressure  
Sea Level Pressure 29.63 in    
Wind  
Wind Speed 14 mph (NW)    
Max Wind Speed 25 mph    
Max Gust Speed 33 mph    
Visibility 7 miles    
Events Rain    
T = Trace of Precipitation, MM = Missing Value Source: NWS Daily Summary

Daily Weather History Graph

Daily Weather History Graph

Search for Another Location

Airport or City:

Trip Planner

Search our weather history database for the weather conditions in past years. The results will help you decide how hot, cold, wet, or windy it might be!

Date:

Astronomy

Apr. 18, 2013 Rise Set
Actual Time 6:30 AM CDT 7:58 PM CDT
Civil Twilight 6:01 AM CDT 8:26 PM CDT
Nautical Twilight 5:27 AM CDT 9:01 PM CDT
Astronomical Twilight 4:50 AM CDT 9:38 PM CDT
Moon 12:42 PM CDT (4/18) 2:13 AM CDT (4/18)
Length of Visible Light 14h 25m
Length of Day
13h 27m
First Quarter, 52% of the Moon is Illuminated
Apr 18
First Quarter
Apr 25
Full
May 2
Last Quarter
May 9
New
May 17
First Quarter

Hourly Weather History & Observations

Time (CDT) Temp. Windchill Dew Point Humidity Pressure Visibility Wind Dir Wind Speed Gust Speed Precip Events Conditions
12:15 AM 42.8 °F 37.0 °F 41.5 °F 95% 29.66 in 4.0 mi NW 10.4 mph - 0.09 in Rain Rain
12:35 AM 42.4 °F 36.1 °F 41.2 °F 95% 29.71 in 7.0 mi WNW 11.5 mph - 0.11 in Rain Rain
12:55 AM 42.1 °F - 40.8 °F 95% 29.72 in 2.0 mi Calm Calm - 0.27 in   Overcast
1:15 AM 41.9 °F 35.9 °F 40.6 °F 95% 29.68 in 5.0 mi NNW 10.4 mph - 0.08 in   Unknown
1:35 AM 41.5 °F 35.0 °F 40.3 °F 95% 29.67 in 10.0 mi NW 11.5 mph 16.1 mph 0.08 in   Drizzle
1:55 AM 41.4 °F 35.2 °F 40.1 °F 95% 29.66 in 10.0 mi NNW 10.4 mph 16.1 mph 0.08 in   Overcast
2:15 AM 41.4 °F 35.7 °F 40.1 °F 95% 29.68 in 5.0 mi NW 9.2 mph - 0.01 in Rain Rain
2:35 AM 41.2 °F 36.6 °F 40.1 °F 96% 29.66 in 5.0 mi NW 6.9 mph - 0.07 in Rain Light Rain
2:55 AM 41.0 °F 34.7 °F 39.7 °F 95% 29.64 in 7.0 mi NNW 10.4 mph - 0.08 in Rain Rain
3:15 AM 41.0 °F 35.2 °F 39.6 °F 95% 29.64 in 5.0 mi NW 9.2 mph - 0.05 in Rain Rain
3:35 AM 40.5 °F 31.8 °F 39.2 °F 95% 29.59 in 7.0 mi NNW 17.3 mph - 0.13 in Rain Rain
3:55 AM 40.1 °F 32.0 °F 38.7 °F 95% 29.63 in 10.0 mi NNW 15.0 mph 19.6 mph 0.14 in   Light Drizzle
4:15 AM 40.1 °F 31.6 °F 38.5 °F 94% 29.63 in 10.0 mi NNW 16.1 mph - N/A   Overcast
4:35 AM 39.7 °F 31.2 °F 38.3 °F 95% 29.64 in 3.0 mi NNW 16.1 mph 21.9 mph N/A Rain Rain
4:55 AM 39.6 °F 31.0 °F 38.3 °F 95% 29.63 in 5.0 mi NNW 16.1 mph 20.7 mph N/A   Light Drizzle
5:15 AM 39.4 °F 31.1 °F 38.3 °F 96% 29.60 in 4.0 mi North 15.0 mph 20.7 mph N/A   Overcast
5:35 AM 39.2 °F 30.5 °F 37.9 °F 95% 29.61 in 4.0 mi NNW 16.1 mph 21.9 mph N/A   Overcast
5:55 AM 39.2 °F 29.6 °F 37.8 °F 95% 29.59 in 4.0 mi North 19.6 mph 24.2 mph N/A Rain Rain
6:15 AM 39.0 °F 31.0 °F 37.8 °F 95% 29.55 in 10.0 mi NE 13.8 mph - N/A   Overcast
6:35 AM 39.2 °F 32.0 °F 37.8 °F 95% 29.57 in 10.0 mi North 11.5 mph - N/A   Overcast
6:55 AM 39.2 °F 33.0 °F 37.8 °F 95% 29.58 in 10.0 mi NNE 9.2 mph - N/A   Overcast
7:15 AM 39.2 °F 32.0 °F 37.8 °F 95% 29.57 in 10.0 mi North 11.5 mph 19.6 mph N/A   Overcast
7:35 AM 39.2 °F 33.6 °F 37.8 °F 95% 29.59 in 7.0 mi North 8.1 mph - N/A   Overcast
7:55 AM 38.8 °F 34.6 °F 37.6 °F 95% 29.60 in 4.0 mi North 5.8 mph - N/A Rain Light Rain
8:15 AM 38.8 °F 32.1 °F 37.8 °F 96% 29.57 in 3.0 mi North 10.4 mph - 0.05 in Rain Light Rain
8:35 AM 38.8 °F 33.2 °F 37.8 °F 96% 29.55 in 5.0 mi North 8.1 mph - 0.05 in   Overcast
8:55 AM 38.8 °F 32.1 °F 37.8 °F 96% 29.55 in 5.0 mi North 10.4 mph - 0.05 in   Drizzle
9:15 AM 38.7 °F 31.8 °F 37.6 °F 96% 29.53 in 4.0 mi North 10.4 mph - 0.01 in   Light Drizzle
9:35 AM 38.8 °F 33.2 °F 37.6 °F 95% 29.55 in 2.0 mi NNW 8.1 mph - 0.01 in Rain Rain
9:55 AM 38.5 °F 31.1 °F 37.4 °F 96% 29.54 in 2.0 mi NW 11.5 mph - 0.02 in   Drizzle
10:15 AM 38.3 °F 31.4 °F 37.2 °F 96% 29.55 in 1.8 mi NW 10.4 mph - 0.01 in   Drizzle
10:35 AM 37.8 °F 29.4 °F 36.7 °F 96% 29.56 in 1.5 mi WNW 13.8 mph - 0.01 in   Light Drizzle
10:55 AM 37.6 °F 27.7 °F 36.5 °F 96% 29.56 in 1.8 mi WNW 18.4 mph - 0.01 in   Light Drizzle
11:15 AM 37.6 °F 28.8 °F 36.5 °F 96% 29.57 in 1.8 mi WNW 15.0 mph - N/A Rain Light Rain
11:35 AM 37.2 °F 27.6 °F 36.0 °F 95% 29.56 in 1.5 mi WNW 17.3 mph 24.2 mph N/A   Light Drizzle
11:55 AM 36.9 °F 26.8 °F 35.6 °F 95% 29.56 in 2.5 mi NW 18.4 mph 25.3 mph N/A   Overcast
12:15 PM 36.5 °F 25.4 °F 34.9 °F 94% 29.57 in 2.5 mi WNW 21.9 mph 27.6 mph N/A   Overcast
12:35 PM 37.0 °F 27.4 °F 35.1 °F 93% 29.57 in 10.0 mi NW 17.3 mph 27.6 mph N/A   Overcast
12:55 PM 37.2 °F 27.0 °F 34.9 °F 91% 29.57 in 10.0 mi NW 19.6 mph 27.6 mph N/A   Overcast
1:15 PM 37.0 °F 27.0 °F 34.5 °F 91% 29.58 in 7.0 mi WNW 18.4 mph 24.2 mph N/A   Overcast
1:35 PM 38.1 °F 27.9 °F 34.7 °F 87% 29.57 in 10.0 mi WNW 20.7 mph 25.3 mph N/A   Overcast
1:55 PM 38.3 °F 28.7 °F 35.1 °F 88% 29.60 in 10.0 mi WNW 18.4 mph 26.5 mph N/A   Overcast
2:15 PM 38.3 °F 27.6 °F 35.1 °F 88% 29.60 in 7.0 mi WNW 23.0 mph 26.5 mph N/A   Overcast
2:35 PM 37.4 °F 27.2 °F 34.0 °F 87% 29.62 in 10.0 mi WNW 19.6 mph 29.9 mph N/A   Overcast
2:55 PM 37.6 °F 27.7 °F 34.0 °F 87% 29.62 in 7.0 mi WNW 18.4 mph 27.6 mph N/A   Overcast
3:35 PM 37.8 °F 27.7 °F 33.6 °F 85% 29.63 in 10.0 mi WNW 19.6 mph 29.9 mph N/A   Overcast
3:55 PM 37.4 °F 26.1 °F 33.1 °F 84% 29.63 in 7.0 mi West 24.2 mph 27.6 mph N/A   Overcast
4:15 PM 37.0 °F 26.7 °F 32.0 °F 82% 29.63 in 10.0 mi West 19.6 mph 27.6 mph N/A   Overcast
4:35 PM 36.3 °F 25.8 °F 32.0 °F 84% 29.65 in 10.0 mi West 19.6 mph 29.9 mph N/A   Overcast
4:55 PM 35.8 °F 23.7 °F 30.6 °F 81% 29.66 in 10.0 mi West 25.3 mph 33.4 mph N/A   Overcast
5:15 PM 35.8 °F 25.4 °F 30.2 °F 80% 29.67 in 10.0 mi West 18.4 mph 31.1 mph N/A   Overcast
5:35 PM 35.6 °F 24.5 °F 30.0 °F 80% 29.68 in 10.0 mi West 20.7 mph 28.8 mph N/A   Overcast
5:55 PM 35.2 °F 23.2 °F 29.8 °F 81% 29.69 in 10.0 mi West 24.2 mph 28.8 mph N/A   Overcast
6:15 PM 35.1 °F 23.8 °F 29.7 °F 81% 29.69 in 10.0 mi WNW 20.7 mph 25.3 mph N/A   Overcast
6:35 PM 34.9 °F 23.0 °F 29.1 °F 79% 29.70 in 10.0 mi West 23.0 mph 33.4 mph N/A   Overcast
6:55 PM 34.7 °F 23.4 °F 29.3 °F 81% 29.71 in 10.0 mi West 20.7 mph 31.1 mph N/A   Overcast
7:15 PM 34.3 °F 22.0 °F 29.3 °F 82% 29.72 in 10.0 mi West 24.2 mph 28.8 mph N/A   Overcast
7:35 PM 34.3 °F 22.3 °F 29.1 °F 81% 29.72 in 10.0 mi West 23.0 mph 27.6 mph N/A   Overcast
7:55 PM 34.2 °F 23.3 °F 29.3 °F 82% 29.73 in 10.0 mi West 18.4 mph 26.5 mph N/A   Overcast
8:15 PM 34.0 °F 22.7 °F 29.1 °F 82% 29.73 in 10.0 mi West 19.6 mph 31.1 mph N/A   Overcast
8:35 PM 34.0 °F 22.7 °F 29.1 °F 82% 29.74 in 10.0 mi West 19.6 mph 25.3 mph N/A   Overcast
10:35 PM 33.4 °F 23.1 °F 28.6 °F 82% 29.76 in 10.0 mi West 16.1 mph 25.3 mph N/A   Overcast
10:55 PM 33.1 °F 22.2 °F 28.4 °F 83% 29.76 in 10.0 mi West 17.3 mph 27.6 mph N/A   Overcast
11:15 PM 32.9 °F 22.0 °F 28.0 °F 82% 29.76 in 10.0 mi West 17.3 mph 28.8 mph N/A   Overcast
11:35 PM 32.9 °F 21.3 °F 27.5 °F 81% 29.75 in 10.0 mi West 19.6 mph 26.5 mph N/A   Overcast
11:55 PM 32.9 °F 21.3 °F 27.3 °F 80% 29.75 in 10.0 mi West 19.6 mph 25.3 mph N/A   Overcast